KD9ZDW Weather Reports


time (UTC)temp
C
wind
direction
speed
KPH
gust
KPH
rain 1hr
cm
rain 24hr
cm
rain mn
cm
humidity
%
barometer
mb
20260509024212 11 276 0.0 0.0 0.00 0.13 0.13 94 1010.6
20260509023710 11 279 0.0 0.0 0.00 0.13 0.13 94 1010.6
20260509023207 11 275 0.0 0.0 0.00 0.13 0.13 93 1010.6
20260509022703 11 277 0.0 0.0 0.00 0.13 0.13 93 1010.5
20260509022201 11 262 0.0 0.0 0.00 0.13 0.13 93 1010.7
20260509021658 11 237 1.6 1.6 0.00 0.13 0.13 93 1010.4
20260509021155 11 260 0.0 0.0 0.00 0.13 0.13 93 1010.6
20260509020653 11 260 0.0 0.0 0.00 0.13 0.13 92 1010.6
20260509020150 11 257 0.0 0.0 0.00 0.13 0.13 92 1010.6
20260509015648 11 282 0.0 0.0 0.00 0.13 0.13 92 1010.8
20260509015146 11 261 0.0 0.0 0.00 0.13 0.13 92 1010.5
20260509014642 11 265 0.0 0.0 0.00 0.13 0.13 91 1010.6
20260509014138 11 275 0.0 0.0 0.00 0.13 0.13 91 1010.4
20260509013636 12 262 0.0 1.6 0.00 0.13 0.13 91 1010.6
20260509013131 12 263 0.0 0.0 0.00 0.13 0.13 91 1010.4
20260509012628 12 277 0.0 1.6 0.00 0.13 0.13 90 1010.5
20260509012125 12 270 0.0 0.0 0.00 0.13 0.13 90 1010.1
20260509011623 12 243 1.6 3.2 0.00 0.13 0.13 89 1010.3
20260509011120 12 264 0.0 3.2 0.00 0.13 0.13 89 1010.2
20260509010617 12 227 3.2 3.2 0.00 0.13 0.13 89 1010.1
20260509010114 12 235 1.6 4.8 0.00 0.13 0.13 88 1010.1
20260509005612 12 211 1.6 3.2 0.00 0.13 0.13 88 1010.1
20260509005107 12 214 3.2 3.2 0.00 0.13 0.13 87 1010.1
20260509004604 12 270 0.0 3.2 0.00 0.13 0.13 87 1010.1
20260509004101 12 252 0.0 4.8 0.00 0.13 0.13 87 1010.2
20260509003559 12 215 4.8 4.8 0.00 0.13 0.13 86 1010.2
20260509003056 12 233 1.6 3.2 0.00 0.13 0.13 86 1010.0
20260509002554 13 214 4.8 8.0 0.00 0.13 0.13 85 1010.2
20260509002051 13 234 3.2 8.0 0.00 0.13 0.13 85 1010.3
20260509001548 13 258 0.0 3.2 0.00 0.13 0.13 85 1010.2
20260509001044 13 231 3.2 4.8 0.00 0.13 0.13 84 1010.3
20260509000542 13 254 3.2 4.8 0.00 0.13 0.13 84 1010.2
20260509000038 13 249 1.6 4.8 0.00 0.13 0.13 84 1010.2
20260508235536 13 242 3.2 8.0 0.00 0.13 0.13 84 1010.0
20260508235032 13 222 1.6 3.2 0.00 0.13 0.13 84 1010.2
20260508234530 13 210 1.6 3.2 0.00 0.13 0.13 84 1010.2
20260508234027 13 219 1.6 4.8 0.00 0.13 0.13 84 1010.3
20260508233526 13 178 3.2 4.8 0.00 0.13 0.13 84 1010.4
20260508233023 13 279 1.6 4.8 0.00 0.13 0.13 85 1010.1
20260508232520 13 233 3.2 4.8 0.00 0.13 0.13 85 1010.4
20260508232017 13 220 3.2 8.0 0.00 0.13 0.13 85 1010.5
20260508231514 13 228 1.6 4.8 0.00 0.13 0.13 86 1010.3
20260508231011 13 221 4.8 8.0 0.00 0.13 0.13 86 1010.5
20260508230508 13 209 4.8 8.0 0.00 0.13 0.13 86 1010.4
20260508230004 13 261 3.2 3.2 0.00 0.13 0.13 87 1010.5
20260508225502 13 262 3.2 8.0 0.00 0.13 0.13 86 1010.4
20260508224959 13 235 3.2 9.7 0.00 0.13 0.13 86 1010.5
20260508224456 13 235 3.2 9.7 0.00 0.13 0.13 86 1010.5
20260508223953 13 221 4.8 9.7 0.00 0.13 0.13 86 1010.4
20260508223451 13 266 3.2 8.0 0.00 0.13 0.13 86 1010.6
20260508222948 13 229 3.2 9.7 0.00 0.13 0.13 85 1010.5
20260508222446 13 262 1.6 3.2 0.00 0.13 0.13 85 1010.7
20260508221942 13 188 4.8 8.0 0.00 0.13 0.13 85 1010.6
20260508221438 13 272 3.2 8.0 0.00 0.13 0.13 85 1010.8
20260508220934 13 260 3.2 3.2 0.00 0.13 0.13 83 1010.7
20260508220431 13 235 3.2 4.8 0.00 0.13 0.13 83 1010.4
20260508215927 13 273 4.8 8.0 0.00 0.13 0.13 83 1010.7
20260508215424 13 275 3.2 3.2 0.00 0.13 0.13 83 1010.7
20260508214921 13 284 1.6 9.7 0.00 0.13 0.13 82 1010.8
20260508214419 13 282 1.6 8.0 0.00 0.13 0.13 82 1010.6
20260508213914 13 264 4.8 8.0 0.00 0.13 0.13 82 1010.6
20260508213412 13 229 6.4 11.3 0.00 0.13 0.13 83 1010.3
20260508212907 13 234 3.2 8.0 0.00 0.13 0.13 83 1010.8
20260508212404 12 246 4.8 12.9 0.00 0.13 0.13 84 1010.7
20260508211900 13 268 1.6 4.8 0.00 0.13 0.13 85 1010.8
20260508211355 13 255 3.2 4.8 0.00 0.13 0.13 84 1010.9
20260508210854 12 258 8.0 11.3 0.00 0.13 0.13 84 1010.8
20260508210350 12 250 3.2 4.8 0.00 0.13 0.13 84 1010.8
20260508205846 12 273 9.7 11.3 0.00 0.13 0.13 83 1011.0
20260508205343 12 260 4.8 12.9 0.13 0.13 0.13 82 1011.0
20260508204839 12 286 4.8 24.1 0.13 0.13 0.13 82 1011.1
20260508204336 13 256 6.4 20.9 0.00 0.10 0.10 82 1011.2
20260508203832 13 211 11.3 24.1 0.00 0.10 0.10 80 1011.2
20260508203329 13 209 6.4 11.3 0.00 0.10 0.10 83 1011.4
20260508202824 13 267 1.6 3.2 0.18 0.10 0.10 82 1011.3
20260508202322 13 245 1.6 4.8 0.18 0.10 0.10 80 1011.3
20260508201819 14 231 1.6 3.2 0.00 0.08 0.08 78 1011.3
20260508201316 14 238 1.6 3.2 0.00 0.08 0.08 77 1011.1
20260508200812 14 218 1.6 1.6 0.00 0.08 0.08 75 1011.3
20260508200309 15 274 0.0 1.6 0.00 0.08 0.08 75 1011.1
20260508195805 15 252 1.6 1.6 0.00 0.08 0.08 74 1011.3
20260508195305 15 280 4.8 4.8 0.00 0.08 0.08 73 1011.4
20260508194758 15 279 4.8 4.8 0.00 0.08 0.08 70 1011.2
20260508194255 15 257 1.6 1.6 0.00 0.08 0.08 70 1011.3
20260508193752 15 297 1.6 1.6 0.00 0.08 0.08 70 1011.3
20260508193249 15 235 1.6 3.2 0.00 0.08 0.08 67 1011.4
20260508192745 15 278 0.0 1.6 0.00 0.08 0.08 69 1011.5
20260508192242 15 278 3.2 4.8 0.00 0.08 0.08 68 1011.6
20260508191740 15 238 0.0 1.6 0.00 0.08 0.08 67 1011.6
20260508191237 14 280 0.0 1.6 0.00 0.08 0.08 69 1011.6
20260508190734 15 275 0.0 1.6 0.00 0.08 0.08 71 1011.8
20260508190229 14 254 0.0 1.6 0.00 0.08 0.08 70 1011.9
20260508185727 15 297 3.2 4.8 0.00 0.08 0.08 72 1012.0
20260508185224 14 268 0.0 3.2 0.00 0.08 0.08 71 1011.8
20260508184721 14 266 0.0 3.2 0.00 0.08 0.08 71 1011.8
20260508184218 14 247 0.0 1.6 0.00 0.08 0.08 72 1012.1
20260508183715 14 268 0.0 1.6 0.00 0.08 0.08 75 1012.1
20260508183211 14 280 0.0 1.6 0.00 0.08 0.08 77 1012.4
20260508182707 14 269 0.0 0.0 0.00 0.08 0.08 74 1012.4
20260508182204 14 310 3.2 3.2 0.00 0.08 0.08 77 1012.4
20260508181700 13 265 3.2 3.2 0.00 0.08 0.08 74 1012.4
20260508181157 13 282 4.8 8.0 0.00 0.08 0.08 74 1012.5
20260508180653 13 268 4.8 8.0 0.00 0.08 0.08 76 1012.5
20260508180151 13 249 1.6 4.8 0.00 0.08 0.08 79 1012.7
20260508175647 12 274 0.0 0.0 0.00 0.08 0.08 80 1012.8
20260508175144 12 324 1.6 1.6 0.00 0.08 0.08 80 1012.7
20260508174642 12 244 1.6 1.6 0.00 0.08 0.08 81 1012.7
20260508174138 12 227 1.6 1.6 0.00 0.08 0.08 83 1013.0
20260508173635 11 260 1.6 4.8 0.00 0.08 0.08 83 1013.2
20260508173131 12 250 1.6 1.6 0.00 0.08 0.08 84 1013.3
20260508172628 11 301 0.0 1.6 0.00 0.08 0.08 86 1013.5
20260508172125 12 318 1.6 3.2 0.00 0.08 0.08 86 1013.4
20260508171621 11 265 0.0 0.0 0.00 0.08 0.08 85 1013.4
20260508171118 11 244 1.6 1.6 0.00 0.08 0.08 84 1013.5
20260508170615 11 274 0.0 0.0 0.00 0.08 0.08 85 1013.9
20260508170113 11 279 0.0 0.0 0.00 0.08 0.08 86 1013.7
20260508165609 11 264 0.0 3.2 0.00 0.08 0.08 86 1013.7
20260508165106 11 275 0.0 0.0 0.00 0.08 0.08 87 1014.1
20260508164603 11 264 0.0 1.6 0.13 0.08 0.08 86 1014.1
20260508164059 11 262 0.0 1.6 0.13 0.08 0.08 85 1014.2
20260508163557 11 255 0.0 1.6 0.18 0.05 0.05 84 1014.3
20260508163054 11 256 3.2 9.7 0.18 0.05 0.05 82 1014.2
20260508162550 11 234 4.8 4.8 0.00 0.03 0.03 80 1014.2
20260508162048 12 234 6.4 8.0 0.00 0.03 0.03 78 1014.1
20260508161545 11 248 1.6 9.7 0.00 0.03 0.03 79 1014.1
20260508161042 11 276 1.6 4.8 0.00 0.03 0.03 80 1014.1
20260508160540 12 227 4.8 8.0 0.00 0.03 0.03 79 1014.0
20260508160037 11 273 4.8 12.9 0.00 0.03 0.03 82 1014.2
20260508155534 11 202 3.2 8.0 0.00 0.03 0.03 82 1014.0
20260508155031 11 227 3.2 8.0 0.00 0.03 0.03 82 1014.2
20260508154528 11 179 6.4 8.0 0.00 0.03 0.03 84 1014.3
20260508154025 10 206 4.8 8.0 0.00 0.03 0.03 83 1014.2
20260508153522 10 225 8.0 9.7 0.00 0.03 0.03 83 1014.3
20260508153018 10 238 3.2 4.8 0.00 0.03 0.03 83 1014.0
20260508152515 11 247 8.0 9.7 0.00 0.03 0.03 83 1014.1
20260508152011 11 215 3.2 3.2 0.00 0.03 0.03 84 1014.3
20260508151508 10 272 1.6 4.8 0.00 0.03 0.03 85 1014.3
20260508151004 10 292 1.6 4.8 0.00 0.03 0.03 85 1014.3
20260508150501 10 270 1.6 3.2 0.00 0.03 0.03 85 1014.6
20260508145956 10 270 1.6 9.7 0.18 0.03 0.03 85 1014.5
20260508145454 10 343 3.2 9.7 0.18 0.03 0.03 85 1014.6
20260508144950 10 295 4.8 11.3 0.00 0.00 0.00 85 1014.5
20260508144448 10 253 1.6 9.7 0.00 0.00 0.00 86 1014.6
20260508143945 10 278 4.8 11.3 0.00 0.00 0.00 84 1014.8
20260508143443 11 281 6.4 20.9 0.00 0.00 0.00 83 1014.8
20260508142939 11 284 3.2 8.0 0.00 0.00 0.00 82 1014.9
20260508142436 11 277 11.3 14.5 0.00 0.00 0.00 82 1015.1
20260508141932 11 272 3.2 4.8 0.00 0.00 0.00 82 1015.1
20260508141429 11 218 4.8 16.1 0.00 0.00 0.00 81 1014.8
20260508140927 11 265 4.8 12.9 0.00 0.00 0.00 81 1014.7
20260508140424 11 272 11.3 12.9 0.00 0.00 0.00 81 1014.7
20260508135919 11 305 4.8 8.0 0.00 0.00 0.00 80 1014.4
20260508135416 11 251 4.8 4.8 0.00 0.00 0.00 81 1014.5
20260508134913 11 262 6.4 8.0 0.00 0.00 0.00 80 1014.4
20260508134409 11 207 4.8 4.8 0.00 0.00 0.00 80 1014.6
20260508133906 11 285 3.2 12.9 0.00 0.00 0.00 80 1014.6
20260508133404 11 266 1.6 3.2 0.00 0.00 0.00 81 1014.7
20260508132900 10 220 1.6 9.7 0.00 0.00 0.00 80 1014.8
20260508132358 10 280 1.6 4.8 0.00 0.00 0.00 81 1014.8
20260508131855 10 252 0.0 1.6 0.00 0.00 0.00 81 1014.3
20260508131350 10 267 0.0 1.6 0.00 0.00 0.00 81 1014.5
20260508130847 10 242 0.0 1.6 0.00 0.00 0.00 80 1014.5
20260508130344 10 267 1.6 3.2 0.00 0.00 0.00 81 1014.7
20260508125840 10 294 4.8 9.7 0.00 0.00 0.00 81 1014.7
20260508125336 10 275 1.6 4.8 0.00 0.00 0.00 82 1014.6
20260508124834 10 271 0.0 3.2 0.00 0.00 0.00 82 1014.6
20260508124331 10 272 0.0 1.6 0.00 0.00 0.00 83 1014.5
20260508123829 10 286 1.6 1.6 0.00 0.00 0.00 82 1014.5
20260508123328 10 280 1.6 1.6 0.00 0.00 0.00 81 1014.6
20260508122824 10 267 3.2 8.0 0.00 0.00 0.00 82 1014.4
20260508122320 9 275 0.0 1.6 0.00 0.00 0.00 82 1014.5
20260508121818 9 244 4.8 4.8 0.00 0.00 0.00 82 1014.5
20260508121316 9 276 3.2 4.8 0.00 0.00 0.00 82 1014.3
20260508120813 9 276 1.6 3.2 0.00 0.00 0.00 82 1014.4
20260508120311 9 270 3.2 3.2 0.00 0.00 0.00 83 1014.5
20260508115808 9 273 1.6 1.6 0.00 0.00 0.00 82 1014.3
20260508115306 9 278 1.6 3.2 0.00 0.00 0.00 82 1014.4
20260508114802 9 258 3.2 3.2 0.00 0.00 0.00 83 1014.2
20260508114259 9 286 1.6 8.0 0.00 0.00 0.00 83 1014.1
20260508113755 9 274 0.0 3.2 0.00 0.00 0.00 82 1014.0
20260508113254 9 320 4.8 4.8 0.00 0.00 0.00 82 1014.1
20260508112750 9 285 1.6 4.8 0.00 0.00 0.00 83 1014.2
20260508112247 8 315 3.2 3.2 0.00 0.00 0.00 83 1014.0
20260508111743 8 274 3.2 8.0 0.00 0.00 0.00 81 1014.0
20260508111241 8 284 1.6 4.8 0.00 0.00 0.00 81 1014.2
20260508110739 8 270 1.6 8.0 0.00 0.00 0.00 82 1014.0
20260508110236 8 251 1.6 1.6 0.00 0.00 0.00 83 1013.5
20260508105735 8 275 4.8 4.8 0.00 0.00 0.00 83 1013.9
20260508105232 8 270 1.6 3.2 0.00 0.00 0.00 83 1013.9
20260508104730 8 287 1.6 4.8 0.00 0.00 0.00 84 1013.7
20260508104226 7 254 1.6 3.2 0.00 0.00 0.00 86 1013.9
20260508103724 7 261 0.0 1.6 0.00 0.00 0.00 87 1013.3
20260508103221 7 258 0.0 1.6 0.00 0.00 0.00 87 1013.5
20260508102718 7 226 1.6 3.2 0.00 0.00 0.00 88 1013.4
20260508102216 7 265 0.0 0.0 0.00 0.00 0.00 87 1013.5
20260508101713 7 258 0.0 1.6 0.00 0.00 0.00 87 1013.5
20260508101211 7 275 0.0 0.0 0.00 0.00 0.00 85 1013.5
20260508100708 7 211 3.2 4.8 0.00 0.00 0.00 86 1013.7
20260508100206 7 278 1.6 4.8 0.00 0.00 0.00 85 1013.9
20260508095702 7 237 1.6 3.2 0.00 0.00 0.00 87 1014.0
20260508095159 7 232 1.6 4.8 0.00 0.00 0.00 88 1013.7
20260508094656 7 233 0.0 0.0 0.00 0.00 0.00 89 1013.9
20260508094153 6 228 1.6 1.6 0.00 0.00 0.00 91 1014.0
20260508093650 6 267 0.0 0.0 0.00 0.00 0.00 91 1013.6
20260508093148 6 260 0.0 0.0 0.00 0.00 0.00 91 1014.0
20260508092644 6 262 0.0 1.6 0.00 0.00 0.00 91 1013.6
20260508092143 6 243 0.0 1.6 0.00 0.00 0.00 91 1013.9
20260508091640 6 253 1.6 1.6 0.00 0.00 0.00 93 1013.6
20260508091137 6 249 1.6 4.8 0.00 0.00 0.00 96 1013.9
20260508090635 6 265 0.0 1.6 0.00 0.00 0.00 96 1014.2
20260508090132 6 266 1.6 1.6 0.00 0.00 0.00 96 1014.0
20260508085628 6 280 0.0 1.6 0.00 0.00 0.00 96 1014.2
20260508085125 6 274 0.0 3.2 0.00 0.00 0.00 96 1013.9
20260508084621 6 269 0.0 0.0 0.00 0.00 0.00 97 1013.7
20260508084119 6 274 0.0 1.6 0.00 0.00 0.00 97 1013.7
20260508083616 6 259 1.6 1.6 0.00 0.00 0.00 97 1014.0
20260508083113 6 256 0.0 0.0 0.00 0.00 0.00 97 1014.0
20260508082609 6 273 0.0 1.6 0.00 0.00 0.00 97 1013.7
20260508082106 5 271 0.0 1.6 0.00 0.00 0.00 97 1013.9
20260508081604 5 276 0.0 0.0 0.00 0.00 0.00 97 1013.7
20260508081100 5 266 0.0 0.0 0.00 0.00 0.00 97 1014.0
20260508080558 5 302 0.0 0.0 0.00 0.00 0.00 97 1013.7
20260508080055 5 282 0.0 1.6 0.00 0.00 0.00 97 1013.7
20260508075551 5 285 0.0 0.0 0.00 0.00 0.00 97 1013.7
20260508075049 5 287 0.0 0.0 0.00 0.00 0.00 97 1013.7
20260508074546 5 276 0.0 0.0 0.00 0.00 0.00 97 1013.9
20260508074043 5 285 0.0 0.0 0.00 0.00 0.00 97 1013.9
20260508073540 5 276 0.0 0.0 0.00 0.00 0.00 97 1013.7
20260508073038 5 266 0.0 0.0 0.00 0.00 0.00 97 1013.9
20260508072533 5 271 0.0 0.0 0.00 0.00 0.00 97 1014.0
20260508072031 5 268 0.0 0.0 0.00 0.00 0.00 97 1013.9
20260508071529 5 265 0.0 0.0 0.00 0.00 0.00 96 1013.9
20260508071026 6 273 0.0 0.0 0.00 0.00 0.00 97 1013.9
20260508070524 6 268 0.0 0.0 0.00 0.00 0.00 96 1013.9
20260508070022 6 263 0.0 0.0 0.00 0.00 0.00 97 1014.1
20260508065519 6 219 0.0 0.0 0.00 0.00 0.00 97 1014.1
20260508065017 6 256 0.0 0.0 0.00 0.00 0.00 97 1014.1
20260508064514 6 261 0.0 0.0 0.00 0.00 0.00 96 1014.1
20260508064012 6 264 0.0 0.0 0.00 0.00 0.00 97 1014.3
20260508063509 6 265 0.0 0.0 0.00 0.00 0.00 96 1014.3
20260508063007 5 263 0.0 0.0 0.00 0.00 0.00 96 1014.3
20260508062505 5 279 0.0 0.0 0.00 0.00 0.00 96 1014.4
20260508062001 5 285 0.0 0.0 0.00 0.00 0.00 96 1014.4
20260508061459 5 281 0.0 0.0 0.00 0.00 0.00 96 1014.4
20260508060955 5 271 0.0 0.0 0.00 0.00 0.00 96 1014.3
20260508060452 5 271 0.0 0.0 0.00 0.00 0.00 96 1014.5
20260508055948 5 280 0.0 0.0 0.00 0.00 0.00 96 1014.6
20260508055446 6 274 0.0 0.0 0.00 0.00 0.00 96 1014.4
20260508054942 6 265 0.0 0.0 0.00 0.00 0.00 96 1014.6
20260508054439 6 271 0.0 0.0 0.00 0.00 0.00 96 1014.7
20260508053936 6 278 0.0 0.0 0.00 0.00 0.00 95 1014.5
20260508053433 6 285 0.0 0.0 0.00 0.00 0.00 95 1014.7
20260508052931 6 285 0.0 0.0 0.00 0.00 0.00 95 1014.5
20260508052428 6 276 0.0 0.0 0.00 0.00 0.00 95 1014.5
20260508051924 6 269 0.0 0.0 0.00 0.00 0.00 95 1014.7
20260508051420 6 266 0.0 0.0 0.00 0.00 0.00 95 1014.7
20260508050916 6 266 0.0 0.0 0.00 0.00 0.00 95 1014.8
20260508050413 6 271 0.0 0.0 0.00 0.00 0.00 95 1014.7
20260508045909 6 274 0.0 0.0 0.00 0.00 0.00 95 1014.8
20260508045407 6 274 0.0 0.0 0.00 0.00 0.00 95 1014.7
20260508044904 6 265 0.0 0.0 0.00 0.00 0.00 95 1014.8
20260508044401 6 266 0.0 0.0 0.00 0.00 0.00 95 1014.7
20260508043856 6 274 0.0 0.0 0.00 0.00 0.00 94 1014.9
20260508043354 6 277 0.0 0.0 0.00 0.00 0.00 94 1014.8
20260508042850 7 280 0.0 0.0 0.00 0.00 0.00 94 1014.8
20260508042348 7 279 0.0 0.0 0.00 0.00 0.00 94 1014.6
20260508041845 7 262 0.0 0.0 0.00 0.00 0.00 94 1014.8
20260508041341 7 261 0.0 0.0 0.00 0.00 0.00 94 1014.6
20260508040838 7 271 0.0 0.0 0.00 0.00 0.00 94 1014.8
20260508040335 7 266 0.0 0.0 0.00 0.00 0.00 94 1014.8
20260508035832 7 255 0.0 0.0 0.00 0.10 0.10 94 1014.9
20260508035330 7 250 0.0 0.0 0.00 0.10 0.10 94 1014.5
20260508034827 7 259 0.0 0.0 0.00 0.10 0.10 93 1014.9
20260508034324 7 261 0.0 0.0 0.00 0.10 0.10 93 1014.9
20260508033820 7 237 0.0 1.6 0.00 0.10 0.10 93 1014.9
20260508033319 7 264 0.0 0.0 0.00 0.10 0.10 92 1014.9
20260508032816 7 269 0.0 0.0 0.00 0.10 0.10 92 1014.9
20260508032313 7 260 0.0 0.0 0.00 0.10 0.10 92 1015.1
20260508031810 7 255 0.0 0.0 0.00 0.10 0.10 91 1015.1
20260508031306 7 256 0.0 0.0 0.00 0.10 0.10 91 1015.2
20260508030802 8 239 1.6 1.6 0.00 0.10 0.10 90 1015.3
20260508030300 8 216 1.6 1.6 0.00 0.10 0.10 89 1015.5
20260508025756 8 320 0.0 1.6 0.00 0.10 0.10 88 1015.6
20260508025254 8 274 3.2 3.2 0.00 0.10 0.10 88 1015.4
20260508024750 8 228 1.6 3.2 0.30 0.10 0.10 88 1015.5